| time (UTC) | temp F | wind direction | speed knots | gust knots | rain 1hr in | rain 24hr in | rain mn in | humidity % | barometer mb |
| 20260503234535 | 57 | 279 | 5.2 | 9.6 | 0.00 | 0.00 | 0.00 | 55 | 1005.9 |
| 20260503233037 | 57 | 226 | 5.2 | 10.4 | 0.00 | 0.00 | 0.00 | 53 | 1006.0 |
| 20260503231533 | 58 | 243 | 7.8 | 13.0 | 0.00 | 0.00 | 0.00 | 51 | 1005.9 |
| 20260503230034 | 58 | 248 | 8.7 | 14.8 | 0.00 | 0.00 | 0.00 | 50 | 1006.0 |
| 20260503224534 | 59 | 229 | 6.1 | 9.6 | 0.00 | 0.00 | 0.00 | 51 | 1006.1 |
| 20260503223031 | 59 | 238 | 7.8 | 11.3 | 0.00 | 0.00 | 0.00 | 49 | 1006.2 |
| 20260503221532 | 60 | 252 | 7.0 | 14.8 | 0.00 | 0.00 | 0.00 | 50 | 1006.2 |
| 20260503220031 | 60 | 243 | 7.0 | 13.9 | 0.00 | 0.00 | 0.00 | 50 | 1006.4 |
| 20260503214529 | 60 | 258 | 7.0 | 14.8 | 0.00 | 0.00 | 0.00 | 51 | 1006.4 |
| 20260503213028 | 61 | 227 | 10.4 | 15.6 | 0.00 | 0.00 | 0.00 | 49 | 1006.3 |
| 20260503211527 | 61 | 227 | 9.6 | 14.8 | 0.00 | 0.00 | 0.00 | 51 | 1006.3 |
| 20260503210026 | 60 | 244 | 8.7 | 16.5 | 0.00 | 0.00 | 0.00 | 51 | 1006.5 |
| 20260503204524 | 61 | 256 | 7.8 | 17.4 | 0.00 | 0.00 | 0.00 | 50 | 1006.4 |
| 20260503203024 | 60 | 244 | 11.3 | 17.4 | 0.00 | 0.00 | 0.00 | 52 | 1006.9 |
| 20260503201523 | 60 | 231 | 10.4 | 17.4 | 0.00 | 0.00 | 0.00 | 53 | 1006.9 |
| 20260503200021 | 59 | 242 | 9.6 | 16.5 | 0.00 | 0.00 | 0.00 | 52 | 1007.1 |
| 20260503194521 | 59 | 240 | 7.8 | 16.5 | 0.00 | 0.00 | 0.00 | 52 | 1007.3 |
| 20260503193019 | 60 | 209 | 10.4 | 18.2 | 0.00 | 0.00 | 0.00 | 51 | 1007.4 |
| 20260503191528 | 60 | 236 | 7.8 | 13.9 | 0.00 | 0.00 | 0.00 | 56 | 1007.7 |
| 20260503190012 | 58 | 250 | 6.1 | 13.0 | 0.00 | 0.00 | 0.00 | 59 | 1007.9 |
| 20260503184511 | 57 | 210 | 5.2 | 10.4 | 0.00 | 0.00 | 0.00 | 62 | 1008.2 |
| 20260503183008 | 55 | 221 | 5.2 | 10.4 | 0.00 | 0.00 | 0.00 | 67 | 1008.7 |
| 20260503181507 | 52 | 229 | 4.3 | 8.7 | 0.00 | 0.00 | 0.00 | 70 | 1009.1 |
| 20260503180005 | 52 | 225 | 6.1 | 19.1 | 0.00 | 0.00 | 0.00 | 66 | 1009.3 |
| 20260503174503 | 53 | 253 | 3.5 | 9.6 | 0.00 | 0.00 | 0.00 | 65 | 1009.5 |
| 20260503173003 | 54 | 238 | 4.3 | 12.2 | 0.00 | 0.00 | 0.00 | 59 | 1009.6 |
| 20260503171502 | 55 | 259 | 7.8 | 14.8 | 0.00 | 0.00 | 0.00 | 55 | 1009.6 |
| 20260503160115 | 59 | 247 | 8.7 | 17.4 | 0.00 | 0.00 | 0.00 | 47 | 1009.7 |
| 20260503081532 | 33 | 220 | 1.7 | 2.6 | 0.00 | 0.00 | 0.00 | 77 | 1013.3 |
| 20260503071527 | 34 | 220 | 0.9 | 2.6 | 0.00 | 0.00 | 0.00 | 75 | 1013.4 |
| 20260503054519 | 35 | 220 | 1.7 | 2.6 | 0.00 | 0.00 | 0.00 | 74 | 1013.9 |
| 20260503053023 | 35 | 220 | 1.7 | 2.6 | 0.00 | 0.00 | 0.00 | 74 | 1013.9 |
| 20260503051515 | 35 | 220 | 1.7 | 2.6 | 0.00 | 0.00 | 0.00 | 73 | 1013.9 |
| 20260503050013 | 35 | 220 | 1.7 | 2.6 | 0.00 | 0.00 | 0.00 | 72 | 1013.9 |
| 20260503044514 | 36 | 225 | 0.9 | 2.6 | 0.00 | 0.00 | 0.00 | 70 | 1014.0 |
| 20260503043020 | 37 | 197 | 1.7 | 5.2 | 0.00 | 0.00 | 0.00 | 66 | 1014.0 |
| 20260503041502 | 37 | 155 | 0.9 | 4.3 | 0.00 | 0.00 | 0.00 | 67 | 1014.0 |
| 20260503034557 | 37 | 201 | 0.9 | 4.3 | 0.00 | 0.00 | 0.00 | 67 | 1014.3 |
| 20260503033055 | 37 | 196 | 0.9 | 3.5 | 0.00 | 0.00 | 0.00 | 67 | 1014.4 |
| 20260503031554 | 37 | 194 | 0.9 | 3.5 | 0.00 | 0.00 | 0.00 | 67 | 1014.5 |
| 20260503024553 | 38 | 174 | 1.7 | 6.1 | 0.00 | 0.00 | 0.00 | 68 | 1014.6 |
| 20260503023059 | 38 | 176 | 2.6 | 6.1 | 0.00 | 0.00 | 0.00 | 68 | 1014.7 |
| 20260503021559 | 38 | 170 | 3.5 | 7.0 | 0.00 | 0.00 | 0.00 | 68 | 1014.7 |
| 20260503020058 | 39 | 165 | 4.3 | 7.8 | 0.00 | 0.00 | 0.00 | 68 | 1014.7 |
| 20260503014554 | 38 | 171 | 3.5 | 6.1 | 0.00 | 0.00 | 0.00 | 70 | 1014.7 |
| 20260503013051 | 37 | 174 | 2.6 | 5.2 | 0.00 | 0.00 | 0.00 | 73 | 1014.6 |
| 20260503011551 | 37 | 147 | 0.9 | 4.3 | 0.00 | 0.00 | 0.00 | 74 | 1014.6 |
| 20260503010058 | 38 | 139 | 0.9 | 3.5 | 0.00 | 0.00 | 0.00 | 70 | 1014.5 |
| 20260503004559 | 40 | 159 | 2.6 | 7.0 | 0.00 | 0.00 | 0.00 | 65 | 1014.5 |
| 20260503003103 | 41 | 163 | 0.0 | 0.0 | 0.00 | 0.00 | 0.00 | 63 | 1014.5 |
| 20260503001602 | 42 | 163 | 0.0 | 1.7 | 0.00 | 0.00 | 0.00 | 60 | 1014.5 |
| 20260503000047 | 43 | 163 | 0.9 | 4.3 | 0.00 | 0.00 | 0.00 | 59 | 1014.6 |